Content
SEND FEEDBACK

Daily
Averages
Monthly
Summary
Canada

STRATFORD, ONTARIO


Home > North America > Canada > Ontario
Elevation: 1161 feet     Latitude: 43 24N     Longitude: 081 00W

WEATHER
 
SELECT A DAY
Number of Records: 191,670;   Date Range: 1/1/95 - 9/15/14
 
SHARE

PRINT THIS DATA

[ ← Previous Day ]
WEATHER ALMANAC - JANUARY 20, 2014
[ Next Day → ]
[ °C ]   °F
Weather ElementAverageHighLow
Temperature18.4 °F27 °F (1:00 am)8.6 °F (9:00 pm)
Dewpoint13 °F24.8 °F (2:51 am)-0.4 °F (10:00 pm)
Humidity78.6 %93 % (2:51 am)59 % (1:00 pm)
Barometer29.76 in30.06 in (11:00 pm)29.51 in (2:00 am)
Wind Speed11 mph19.6 mph (6:00 am)
Wind Gust25.3 mph (6:00 am)
Weather ElementAverage
Visibility9.8 mi
Wind DirectionWNW (287.6 °)

Weather ElementTotal
Precipitation---
Heating Degree Days47.2 (Base 65)
Averaged from 39 records on January 20, 2014
WEATHER CONDITIONS BREAKOUT
WIND DIRECTION BREAKOUT
WEATHER BY HOUR - JANUARY 20, 2014
[ °C ]   °F
Local TimeTemperatureDewpointHumidityBarometerVisibilityWind DirectionWind SpeedGust SpeedPrecipitationEventsConditions
1:00 AM27.0 °F22.0 °F72 %29.52 in12.0 miCalmOvercast
1:00 AM26.6 °F21.2 °F80 %29.52 in12.0 miWSW (240°)12.7 mphSnowLight Snow
1:41 AM26.6 °F23.0 °F86 %29.52 in10.0 miWSW (240°)13.8 mphOvercast
2:00 AM26.6 °F23.0 °F86 %29.51 in10.0 miWSW (240°)13.8 mph20.7 mphOvercast
2:51 AM26.6 °F24.8 °F93 %29.51 in5.0 miWSW (240°)13.8 mphSnowLight Snow Showers
3:00 AM26.6 °F24.8 °F93 %29.52 in3.0 miWSW (250°)12.7 mph19.6 mphSnowLight Snow Showers
3:29 AM26.6 °F24.8 °F93 %29.53 in2.0 miWest (260°)10.4 mphSnowLight Snow Showers
4:00 AM26.6 °F24.8 °F93 %29.52 in2.0 miWest (260°)11.5 mphSnowLight Snow
5:00 AM26.6 °F24.8 °F93 %29.54 in5.0 miWest (260°)12.7 mph18.4 mphSnowLight Snow
5:45 AM26.6 °F23.0 °F86 %29.56 in4.0 miNNW (330°)13.8 mph19.6 mphSnowLight Freezing Drizzle
5:51 AM24.8 °F21.2 °F86 %29.57 in12.0 miNorth (350°)16.1 mphSnowLight Snow
6:00 AM23.0 °F17.6 °F80 %29.58 in15.0 miNorth (350°)19.6 mph25.3 mphSnowLight Snow
6:02 AM23.0 °F17.6 °F80 %29.58 in15.0 miNorth (350°)16.1 mph25.3 mphSnowLight Snow
7:00 AM21.0 °F16.0 °F72 %29.65 in15.0 miNNW (340°)10.4 mphOvercast
7:00 AM21.2 °F15.8 °F80 %29.64 in15.0 miNNW (340°)9.2 mphSnowLight Snow Showers
8:00 AM21.2 °F15.8 °F80 %29.68 in15.0 miNNW (330°)8.1 mphSnowLight Snow Showers
9:00 AM19.4 °F14.0 °F80 %29.69 in15.0 miNorth (350°)9.2 mphSnowLight Snow Showers
10:00 AM17.6 °F12.2 °F79 %29.75 in15.0 miNNW (340°)8.1 mphSnowLight Snow Showers
11:00 AM17.6 °F12.2 °F79 %29.79 in12.0 miNNW (340°)10.4 mphSnowLight Snow Showers
12:00 PM17.6 °F10.4 °F73 %29.79 in12.0 miNW (310°)10.4 mphSnowLight Snow Showers
12:31 PM17.6 °F10.4 °F73 %29.79 in15.0 miWNW (300°)9.2 mph18.4 mphOvercast
1:00 PM17.0 °F9.0 °F59 %29.81 in15.0 miNNW (340°)12.7 mphOvercast
1:00 PM17.6 °F8.6 °F68 %29.81 in15.0 miNNW (340°)12.7 mphOvercast
1:26 PM15.8 °F10.4 °F79 %29.82 in10.0 miNNW (330°)11.5 mphSnowLight Snow Showers
2:00 PM15.8 °F8.6 °F73 %29.83 in10.0 miNNW (330°)15.0 mphSnowLight Snow Showers
3:00 PM14.0 °F6.8 °F73 %29.88 in7.0 miNNW (330°)12.7 mphSnowLight Snow Showers
3:18 PM14.0 °F8.6 °F79 %29.89 in2.5 miNW (320°)8.1 mphSnowLight Snow Showers
3:29 PM14.0 °F8.6 °F79 %29.90 in7.0 miNNW (340°)12.7 mphSnowLight Snow Showers
4:00 PM14.0 °F6.8 °F73 %29.91 in10.0 miNNW (330°)10.4 mphSnowLight Snow Showers
5:00 PM12.2 °F6.8 °F79 %29.95 in4.0 miNNW (330°)10.4 mphSnowLight Snow Showers
5:48 PM12.2 °F6.8 °F79 %29.97 in2.5 miNorth (350°)9.2 mphSnowLight Snow Showers
6:00 PM12.2 °F6.8 °F79 %29.98 in2.5 miNorth (350°)8.1 mphSnowLight Snow Showers
6:27 PM12.2 °F6.8 °F79 %29.99 in5.0 miNorth (360°)6.9 mphSnowLight Snow Showers
7:00 PM11.0 °F4.0 °F64 %30.01 in7.0 miNorth (350°)10.4 mphOvercast
7:00 PM10.4 °F5.0 °F79 %30.01 in8.0 miNorth (350°)10.4 mphSnowLight Snow Showers
8:00 PM10.4 °F5.0 °F79 %30.03 in12.0 miNNE (20°)9.2 mphSnowLight Snow Showers
9:00 PM8.6 °F1.4 °F73 %30.04 in15.0 miNE (40°)8.1 mphSnowLight Snow Showers
10:00 PM8.6 °F-0.4 °F67 %30.05 in15.0 miNE (50°)10.4 mphSnowLight Snow Showers
11:00 PM8.6 °F-0.4 °F67 %30.06 in12.0 miNE (50°)8.1 mphSnowLight Snow Showers
Hourly data recorded from CYXU, located miles away from Stratford, Ontario







STORIES FROM OUR PARTNERS